Showing default

COSMOS 2094, 20739

Orbit data source: Space-Track

COSMOS 2094, 20739 is a payload satellite owned by UNKS (CIS) in LEO that was launched on Wed, 08 Aug 1990 UTC via a TSIKLON-3 launch vehicle from the Plesetsk Missile And Space Complex (PKMTR). Payload-class satellites include a variety of spacecraft equipped with specific instruments for various scientific and technological missions. These include communications satellites like Starlink; space stations such as the ISS; scientific satellites like the Hubble; Earth observation satellites from companies like Planet Labs, Umbra, and HawkEye 360; GPS; miniature CubeSats for education and research; and military/defense satellites.

Loading next visibility...
Identifier
20739, 1990-070E
Orbit
LEO
Country
Flag of CISCIS
Related business
Manufacturer
NPO PM
Mission
Defense Communications
Bus & Motor
STRELA-3, Unknown motor
Mass
225 kg wet, 225 kg dry
Launch date (UTC)
1990-08-08 (35 years ago)
Launch vehicle
TSIKLON-3
Launch site
Plesetsk Missile And Space Complex (PKMTR)
Object type
Payload
Rocket body
Debris
Shape & HBR
Cyl, 0.8 m
Radar Cross Section
1.257 m², Large (>1 m²)

Expand to show TLE details & history
Last TLE update: 13 hours ago

TLE from 13 hours ago
0 COSMOS 2094
1 20739U 90070E   26036.41492366  .00000020  00000-0  48802-4 0  9997
2 20739  82.5768  16.2766 0012286  33.8237 134.2932 12.64751695638560
Epoch: 2026-02-05T09:57Z
TLE epoch observation values (Epoch: 2026-02-05T09:57:29.404Z)
Latitude
11.64029°
Longitude
-90.19381°
Altitude
1,412.059 km
Speed
7.152 km/s
True Right ascension
12h 58m 59s
True Declination
11° 34' 42"
Sunlit
Object was in full shadow at epoch
Visualization orbit readout
Latitude
Unknown
Longitude
Unknown
Altitude
Unknown
Speed
Unknown
Apparent Right ascension
Unknown
Apparent Declination
Unknown
Sunlit
N/A
Visualization observer readout
Local Sidereal Time
01:18:07
Azimuth
Unknown
Elevation
Unknown
Doppler factor
Unknown
Orbital elements
Apogee altitude
1,410.267 km
Perigee altitude
1,391.153 km
Semi-major axis
7,778.847 km
Eccentricity
0.00123
Inclination
82.5768°
RAAN
16.2766°
Arg. of periapsis
33.8237°
True anomaly
134.39386°
Mean anomaly
134.2932°
Eccentric anomaly
134.34354°
Mean motion
3.16352 °/min
Orbital period
113.8 mins
BSTAR
0.000048802
Loading maneuver chart data...
Computing Atmospheric mass density...
Loading historical data...
Loading historical data...
Loading historical data...
Loading historical data...
Loading historical data...
Loading historical data...
Loading historical data...

Documentation

Showing up to 5 results
|